COSMOS 1275 DEB, 12662

Orbit data source: Space-Track

COSMOS 1275 DEB, 12662 is space debris in LEO originally from a launch on Thu, 04 Jun 1981 UTC launched from the Plesetsk Missile And Space Complex (PKMTR). Debris objects in space refer to the collection of defunct objects orbiting the Earth. Examples of debris include non-operational satellites, rocket bodies, and fragments generated from explosions, collisions, or faulty payload assembly.

Loading next visibility...
Identifier
12662, 1981-053S
Orbit
LEO
Country
Flag of CISCIS
Related business
Manufacturer
Unknown
Mission
Spacecraft
Bus & Motor
Unknown
Mass
Unknown
Launch date (UTC)
1981-06-04 (45 years ago)
Launch vehicle
Unknown
Launch site
Plesetsk Missile And Space Complex (PKMTR)
Object type
Payload
Rocket body
Debris
Shape & HBR
Unknown shape, 0.6 m
Radar Cross Section
Medium (>0.1 m² and <1 m²)

Expand to show TLE details & history
Last TLE update: 8 hours ago

TLE from 8 hours ago
0 COSMOS 1275 DEB
1 12662U 81053S   26124.11655272  .00000163  00000-0  14592-3 0  9992
2 12662  82.9557 254.1490 0023312 139.7598 341.7498 13.78183954248664
Epoch: 2026-05-04T02:47Z
TLE epoch observation values (Epoch: 2026-05-04T02:47:50.155Z)
Latitude
57.96931°
Longitude
158.84799°
Altitude
963.833 km
Speed
7.383 km/s
True Right ascension
04h 11m 16s
True Declination
57° 49' 08"
Sunlit
Object was in daylight at epoch
Visualization orbit readout
Latitude
Unknown
Longitude
Unknown
Altitude
Unknown
Speed
Unknown
Apparent Right ascension
Unknown
Apparent Declination
Unknown
Sunlit
N/A
Visualization observer readout
Local Sidereal Time
19:05:36
Azimuth
Unknown
Elevation
Unknown
Doppler factor
Unknown
Orbital elements
Apogee altitude
984.603 km
Perigee altitude
950.355 km
Semi-major axis
7,345.616 km
Eccentricity
0.00233
Inclination
82.9557°
RAAN
254.149°
Arg. of periapsis
139.7598°
True anomaly
341.66591°
Mean anomaly
341.7498°
Eccentric anomaly
341.70788°
Mean motion
3.44747 °/min
Orbital period
104.42 mins
BSTAR
0.00014592
Loading maneuver chart data...
Computing Atmospheric mass density...
Loading historical data...
Loading historical data...
Loading historical data...
Loading historical data...
Loading historical data...
Loading historical data...
Loading historical data...

Documentation

Showing up to 5 results
|